Temperature
17 16 16 16 16 16 17 16 16 17 17 16 16 16 16 16 16 16 16 16 16 16 16 16 16 16 16 16 16 16 16 16 16 16 16 16 16 16 16 16 16 16 16
17 17 16 16 16 16 16 16 16 16 16 16 16 16 16 16 16 16 16 16 16 16 16 16 16 15 15 15 15 15 15 15 15 15 16 16 16 16 16 16 16 16 16
17 17 17 16 16 16 16 16 16 16 16 16 16 16 16 16 16 16 15 16 16 16 16 15 15 15 15 15 15 15 15 15 15 15 15 15 15 15 15 15 15 15 15
17 17 17 16 16 16 16 16 16 16 16 16 16 16 16 16 15 15 15 15 15 15 15 15 15 15 15 15 15 15 15 15 15 15 15 15 15 15 15 15 15 15 15
17 16 16 16 16 16 16 16 16 16 16 16 16 16 16 15 15 15 15 15 15 15 15 15 15 15 15 15 15 15 14 14 14 14 14 14 14 14 14 14 14 14 14
16 16 16 16 16 16 16 16 16 16 16 16 15 15 15 15 15 15 15 15 15 15 15 15 14 14 14 14 14 14 14 14 14 14 14 14 14 14 14 14 14 14 14
16 16 16 16 16 16 16 16 16 16 15 15 15 15 15 15 15 15 15 15 14 14 14 14 14 14 14 14 14 14 14 14 13 13 13 13 13 13 13 13 13 13 13
16 16 16 16 15 15 15 15 15 15 15 15 15 15 15 15 14 14 14 14 14 14 14 14 14 14 14 13 13 13 13 13 13 13 13 13 12 12 12 12 12 12 12
16 15 15 15 15 15 15 15 15 15 14 14 14 14 14 14 14 14 14 14 14 14 14 13 13 13 13 13 13 13 13 12 12 12 12 12 12 12 12 11 11 11 11
15 15 15 15 15 15 15 14 14 14 14 14 14 14 13 13 13 13 13 14 14 13 13 13 13 12 12 12 12 12 12 12 12 11 11 11 11 11 11 11 10 10 10
15 15 15 15 15 14 14 14 14 14 14 13 13 13 13 13 13 13 13 13 13 12 12 12 12 12 12 11 11 11 11 11 11 10 10 10 10 10 10 10 9 9 9
15 15 14 14 14 14 14 14 14 13 13 13 13 13 12 12 12 12 12 12 12 12 11 11 11 11 11 10 10 10 10 10 10 9 9 9 9 9 9 9 9 8 8
14 14 14 14 14 13 13 13 13 13 13 12 12 12 11 11 11 11 11 11 11 11 10 10 10 10 10 9 9 9 9 9 9 9 8 8 8 8 8 8 8 8 8
14 14 13 13 13 13 12 12 12 12 12 12 11 11 11 10 10 10 10 10 10 9 9 9 9 9 9 8 8 8 8 8 8 8 7 7 7 7 7 7 7 7 7
13 13 13 13 12 12 12 11 11 11 11 11 11 10 10 10 9 9 9 9 9 8 8 8 8 8 8 8 7 7 7 7 7 7 6 6 6 6 6 6 6 6 6
12 12 12 12 12 11 11 11 10 10 10 10 9 9 9 9 8 8 8 8 8 8 8 8 7 7 7 7 6 6 6 6 6 5 5 5 5 5 5 5 5 5 5
12 11 11 11 11 11 10 10 10 9 9 9 8 8 8 8 7 7 7 7 7 7 7 7 6 6 6 5 5 5 5 5 5 5 4 4 4 4 4 4 4 4 4
11 10 10 10 10 10 10 9 9 9 8 7 7 7 7 7 7 6 6 7 6 6 6 6 5 5 5 5 4 4 4 4 4 4 4 3 3 3 3 3 3 3 3
10 10 10 9 9 9 9 8 8 8 7 7 6 6 6 6 6 6 6 6 6 5 5 5 4 4 4 4 4 3 3 3 3 3 3 3 3 3 3 2 2 2 2
9 9 9 9 9 8 8 8 7 7 7 6 6 6 5 6 5 5 5 5 4 4 4 4 3 3 3 3 3 3 3 3 2 2 2 2 2 2 2 2 2 2 2
9 9 9 8 8 8 7 7 7 6 6 6 5 5 5 5 5 4 4 4 4 3 3 3 3 3 3 2 2 2 2 2 2 2 2 2 2 1 1 2 2 2 2
8 8 8 8 7 7 7 6 6 6 6 5 5 5 4 4 4 4 4 3 3 3 3 3 2 2 2 2 2 2 2 2 2 1 1 1 1 1 1 1 1 1 1
8 8 7 7 7 6 6 6 6 5 5 5 4 4 4 4 3 3 3 3 3 2 2 2 2 2 2 2 2 1 1 1 1 1 1 1 1 1 1 1 1 1 1
7 7 7 7 6 6 6 5 5 5 4 4 4 4 3 3 3 3 3 2 2 2 2 2 2 2 1 1 1 1 1 1 1 1 1 1 1 1 1 1 1 1 1
7 6 6 6 6 5 5 5 5 4 4 4 4 3 3 3 3 3 2 2 2 2 2 2 1 1 1 1 1 1 1 1 1 1 1 1 1 1 1 1 1 1 1
6 6 6 5 5 5 5 4 4 4 4 3 3 3 3 3 2 2 2 2 2 2 2 1 1 1 1 1 1 1 1 1 1 1 1 1 1 1 1 1 1 1 1
Wind_Speed
6 6 7 8 8 8 8 8 8 7 7 8 8 8 8 7 7 6 6 6 6 5 5 5 5 4 4 3 3 3 3 4 4 3 2 2 2 3 2 4 6 7 9
5 6 7 7 8 8 8 8 8 7 7 7 7 7 7 7 7 7 7 7 7 7 6 6 6 4 4 4 4 4 4 4 4 4 2 2 3 2 2 3 3 5 7
4 5 5 6 7 7 7 7 7 7 7 6 6 7 6 6 6 6 6 6 6 6 6 6 5 5 5 3 4 4 4 4 4 4 3 2 2 2 2 2 2 3 5
4 5 5 5 5 6 6 6 6 7 7 7 6 7 6 6 6 6 5 5 4 4 4 4 4 5 5 5 4 5 4 4 4 3 3 3 3 2 1 2 2 2 3
5 5 5 5 5 5 5 5 5 5 6 6 5 5 5 4 5 6 5 5 4 3 2 3 3 4 4 4 3 4 4 3 3 3 3 2 2 2 2 2 3 3 3
6 5 5 6 6 6 5 5 5 4 4 4 4 4 4 4 6 7 6 4 4 3 3 2 2 1 2 2 3 3 4 4 4 3 3 3 3 3 2 2 2 2 3
5 5 5 6 6 5 5 5 5 5 5 5 5 5 4 3 5 6 7 5 4 3 3 2 1 0 1 0 0 1 2 1 2 3 3 4 3 3 2 3 3 3 4
5 5 5 6 6 5 6 5 5 6 5 5 5 5 5 5 5 6 6 4 4 2 2 2 2 1 1 1 2 3 3 3 2 0 1 3 3 2 2 3 3 4 4
5 5 5 6 6 7 7 6 6 6 6 6 6 6 6 6 7 5 5 4 4 3 3 3 2 2 2 3 4 3 3 3 5 5 4 4 5 5 2 1 1 2 3
4 5 5 6 7 7 7 6 6 7 7 7 7 7 7 6 8 7 5 4 5 4 4 5 6 5 5 5 4 4 3 3 4 5 6 7 7 8 7 3 2 2 3
4 6 6 6 7 7 7 7 7 8 9 8 8 8 8 8 9 10 7 5 5 6 5 5 6 9 10 10 7 5 4 3 4 5 5 6 6 6 6 6 4 2 3
6 7 7 7 6 7 8 8 8 9 9 8 8 8 7 8 9 10 11 9 7 7 6 5 6 10 12 11 9 8 8 6 5 5 5 5 5 5 5 6 6 5 3
8 7 7 8 7 7 8 8 8 7 7 7 7 7 6 6 8 12 12 12 11 9 8 10 11 11 11 10 12 11 8 6 5 5 5 5 4 5 5 5 5 6 5
9 8 9 10 10 10 8 7 7 7 7 7 7 7 6 6 6 6 6 8 10 9 8 10 12 13 11 10 9 8 7 6 5 4 4 4 4 5 5 5 5 6 5
11 10 10 10 11 12 11 9 9 7 6 8 7 6 7 7 6 8 7 7 6 6 7 8 8 8 8 8 7 7 7 6 6 5 4 5 5 5 5 5 4 4 4
10 9 9 9 9 10 12 13 18 15 17 16 12 10 9 9 10 13 13 13 12 10 9 8 7 7 7 6 6 6 6 6 6 5 5 5 6 6 6 6 5 5 5
11 9 9 9 9 9 10 11 11 13 17 18 16 15 13 11 12 12 12 14 13 11 9 7 6 6 6 5 5 5 5 5 5 5 6 6 6 6 6 6 6 6 6
11 12 11 9 9 9 9 9 9 10 9 8 11 14 14 13 13 12 11 11 10 9 7 6 6 5 5 5 5 5 5 5 6 6 6 6 6 6 6 6 6 7 7
10 9 9 9 9 9 9 9 9 10 9 8 7 7 10 11 12 12 10 8 7 7 6 6 5 5 5 5 5 5 5 5 6 6 6 6 6 6 6 6 7 8 7
9 13 11 9 9 9 8 8 8 8 8 7 6 5 4 6 7 7 7 6 6 6 5 5 5 5 4 5 5 5 5 5 6 6 6 6 6 6 6 7 7 7 7
8 10 12 10 8 8 8 8 8 8 7 7 6 5 6 7 6 6 6 6 5 5 4 4 4 4 4 4 4 5 6 5 6 6 6 6 6 6 6 6 7 7 7
8 8 7 8 7 7 7 7 7 7 7 7 6 6 8 7 6 5 5 5 4 4 4 3 3 4 4 4 4 5 5 6 6 6 6 6 6 6 6 6 7 7 7
8 9 8 7 7 8 7 7 6 6 6 6 6 5 5 5 5 5 4 4 4 4 5 5 4 4 5 5 5 5 5 6 6 7 7 7 6 6 6 7 8 8 8
8 8 8 7 7 6 6 6 6 6 6 5 5 5 4 4 4 4 3 3 4 4 5 5 5 5 7 7 7 7 7 8 9 8 8 7 7 7 6 7 7 8 8
7 7 7 6 6 6 6 6 5 5 5 5 4 4 3 3 3 3 3 3 3 4 4 5 5 6 7 8 9 9 12 13 11 9 8 6 6 7 7 7 7 7 7
7 7 6 5 5 5 5 5 5 5 4 4 3 3 2 2 2 2 2 2 3 3 4 4 6 7 8 8 10 12 14 14 14 12 8 6 6 5 6 5 7 6 7
Wind_Direction
185 189 187 191 188 184 187 190 189 185 176 180 181 179 180 183 181 181 191 189 193 198 196 198 207 194 193 196 194 196 198 191 220 256 257 270 275 275 284 258 253 249 252
184 190 191 186 178 179 184 185 182 181 177 180 178 178 184 186 184 186 199 197 197 200 201 197 208 198 197 197 198 204 207 204 209 239 256 261 260 277 278 275 270 259 257
160 164 168 173 173 177 179 179 176 173 173 175 179 184 189 187 188 194 199 199 202 205 201 201 206 192 204 205 206 211 214 209 209 223 247 250 263 281 282 284 288 282 278
137 137 148 161 163 163 164 165 167 168 170 178 186 187 188 187 189 188 188 194 200 202 199 202 204 201 209 207 209 214 210 206 206 220 241 254 260 269 258 268 289 283 289
130 132 140 136 131 131 135 142 149 158 168 167 169 173 175 182 191 180 179 183 185 190 193 198 197 195 203 202 207 208 200 204 209 224 240 251 260 252 251 251 269 287 282
126 124 120 122 124 126 130 130 129 132 136 140 150 155 165 189 175 166 164 162 167 179 187 195 190 196 228 223 221 199 185 197 211 217 239 250 265 257 256 255 267 287 288
126 124 126 125 123 125 129 124 126 125 114 106 106 113 112 117 138 146 150 155 160 171 171 168 163 74 93 103 162 116 103 93 202 210 237 252 263 258 254 261 251 252 264
127 127 128 131 132 126 119 119 115 105 104 99 94 97 93 72 84 113 124 131 125 114 116 134 137 62 63 138 121 91 66 39 37 115 252 276 286 287 252 260 269 269 268
128 128 128 131 128 124 118 112 107 103 94 86 82 83 81 61 60 89 116 120 105 85 69 65 92 86 53 109 114 102 71 41 47 50 50 31 24 20 18 18 323 296 293
141 138 132 131 128 128 126 116 104 101 100 91 78 70 71 59 50 64 95 105 102 87 63 52 56 69 67 82 99 94 69 23 21 29 34 30 29 29 31 28 336 301 294
118 115 114 118 121 119 113 106 106 104 97 88 81 68 60 54 52 58 70 89 100 92 78 64 57 66 68 69 75 77 72 59 53 49 44 36 32 30 26 20 9 320 291
94 97 102 104 109 110 108 103 100 102 98 91 83 70 54 49 53 62 69 74 84 90 83 76 72 71 69 67 67 64 64 62 58 52 47 34 24 15 5 0 0 351 321
92 92 94 93 91 94 103 105 100 98 100 99 93 83 65 51 49 57 67 72 76 83 80 76 71 68 68 65 58 56 56 58 58 51 39 25 8 353 351 350 356 356 346
92 89 92 93 89 81 80 85 94 100 107 104 99 92 79 62 50 50 61 70 72 78 76 69 66 63 63 58 52 49 50 52 54 46 28 9 359 1 5 0 355 353 348
91 90 89 89 93 85 76 67 76 66 90 106 104 100 93 77 52 63 76 73 75 80 81 66 59 55 53 49 46 43 40 40 38 29 22 12 5 3 1 358 355 354 350
96 92 94 97 97 97 96 81 63 71 72 75 81 90 79 85 83 75 74 73 74 81 80 71 63 57 54 47 43 38 34 29 23 19 17 11 4 359 354 354 356 351 342
100 99 97 97 99 101 102 101 94 72 65 65 67 73 80 80 78 78 79 75 67 72 75 70 64 57 50 44 38 34 26 16 13 16 12 4 359 356 353 351 349 343 336
91 94 96 96 97 97 97 97 100 99 88 69 57 64 71 71 69 69 75 77 64 60 68 66 59 52 47 40 33 26 19 13 12 9 5 0 356 350 346 344 342 338 331
93 94 94 95 93 94 95 95 95 94 93 90 80 62 60 67 63 57 61 73 75 65 60 57 51 47 41 34 26 20 14 8 2 358 357 352 349 344 339 336 332 328 325
92 98 98 98 96 95 95 96 95 94 92 89 83 74 63 69 69 58 57 66 69 64 58 52 44 39 32 25 17 9 4 360 355 350 345 341 339 335 332 330 328 326 323
93 96 97 96 96 98 99 100 100 99 96 90 78 66 77 83 79 71 64 60 60 59 53 47 38 30 25 16 8 2 358 352 347 342 338 336 333 331 327 324 322 321 319
94 95 97 100 101 99 100 101 102 102 101 97 87 73 70 76 75 71 65 59 54 52 49 46 38 28 18 9 1 354 350 345 342 338 332 328 326 324 322 321 322 321 321
94 94 93 93 98 101 99 100 101 101 100 97 93 84 76 73 73 70 64 57 52 47 43 41 35 22 12 5 359 351 340 333 327 322 319 317 319 319 318 318 319 321 324
94 96 98 98 99 100 102 102 101 102 101 96 91 88 85 79 72 64 57 52 47 41 38 33 27 16 7 1 354 349 341 333 326 317 311 306 310 313 314 316 317 319 320
97 99 101 103 105 107 106 104 103 102 100 96 92 88 83 76 68 58 51 46 40 33 25 19 15 9 1 357 353 348 344 343 340 331 317 307 307 311 314 315 317 320 325
100 102 103 104 106 109 111 112 111 109 105 99 94 89 82 74 66 54 45 35 26 17 9 6 3 0 357 354 350 349 349 350 348 344 332 314 311 314 320 318 322 326 329
Height
1491 1494 1496 1500 1504 1508 1511 1515 1518 1522 1525 1529 1532 1535 1538 1540 1543 1545 1547 1549 1550 1552 1554 1555 1556 1558 1559 1559 1560 1561 1561 1562 1562 1562 1562 1563 1563 1563 1563 1563 1564 1564 1564
1490 1492 1494 1497 1501 1504 1508 1512 1515 1519 1522 1525 1529 1532 1535 1537 1539 1542 1544 1545 1547 1548 1550 1551 1552 1554 1555 1555 1556 1557 1557 1558 1558 1558 1558 1559 1559 1559 1559 1559 1559 1559 1560
1489 1490 1492 1495 1498 1502 1506 1509 1512 1515 1518 1522 1525 1528 1531 1533 1536 1538 1540 1542 1544 1545 1546 1547 1549 1550 1550 1551 1552 1553 1553 1554 1554 1554 1554 1554 1554 1554 1554 1554 1555 1554 1554
1488 1490 1492 1494 1497 1501 1504 1507 1510 1513 1516 1519 1522 1524 1527 1529 1532 1534 1536 1538 1540 1542 1543 1544 1545 1546 1547 1548 1548 1549 1550 1550 1550 1550 1550 1550 1550 1550 1550 1550 1550 1550 1549
1488 1489 1492 1494 1497 1500 1502 1505 1508 1511 1514 1516 1518 1521 1523 1526 1528 1531 1533 1535 1537 1538 1539 1540 1541 1542 1543 1544 1545 1545 1546 1546 1546 1546 1546 1546 1546 1546 1545 1545 1544 1544 1544
1488 1490 1492 1494 1497 1499 1502 1504 1507 1509 1511 1513 1515 1517 1520 1522 1525 1528 1530 1532 1533 1534 1535 1537 1538 1538 1539 1540 1541 1542 1542 1542 1542 1542 1542 1542 1541 1541 1541 1540 1540 1539 1538
1489 1490 1492 1495 1497 1499 1501 1503 1506 1508 1510 1512 1514 1516 1518 1520 1523 1525 1527 1528 1530 1531 1532 1533 1534 1535 1536 1536 1537 1538 1538 1538 1538 1538 1538 1537 1537 1537 1536 1535 1535 1534 1533
1490 1491 1493 1495 1497 1500 1502 1503 1505 1507 1510 1511 1513 1515 1517 1519 1521 1522 1524 1526 1527 1528 1529 1530 1531 1532 1533 1533 1533 1534 1534 1534 1534 1534 1534 1533 1533 1532 1531 1531 1530 1529 1528
1490 1491 1493 1495 1497 1499 1501 1503 1505 1508 1510 1511 1514 1515 1517 1518 1520 1521 1523 1523 1525 1526 1527 1528 1528 1529 1529 1530 1530 1530 1531 1531 1531 1531 1530 1529 1528 1528 1527 1526 1525 1524 1523
1489 1492 1494 1496 1498 1499 1502 1504 1506 1508 1511 1513 1514 1516 1517 1518 1520 1521 1522 1522 1522 1523 1524 1525 1526 1526 1526 1526 1527 1527 1527 1527 1527 1527 1527 1526 1525 1524 1523 1522 1521 1520 1518
1490 1492 1494 1496 1498 1500 1502 1504 1507 1509 1511 1513 1515 1516 1517 1518 1519 1520 1521 1521 1521 1521 1522 1523 1523 1523 1524 1524 1524 1524 1524 1524 1524 1524 1523 1523 1522 1521 1520 1519 1518 1516 1515
1490 1492 1494 1496 1498 1501 1503 1505 1507 1509 1511 1513 1515 1516 1517 1518 1519 1519 1520 1520 1521 1521 1521 1521 1522 1522 1522 1522 1522 1522 1522 1522 1522 1522 1521 1520 1519 1518 1517 1516 1515 1513 1512
1491 1493 1495 1497 1499 1502 1504 1506 1508 1510 1512 1513 1515 1516 1517 1518 1519 1520 1520 1521 1521 1522 1521 1521 1522 1522 1521 1521 1521 1521 1521 1520 1520 1520 1519 1518 1517 1516 1515 1513 1512 1510 1509
1492 1494 1496 1498 1500 1502 1505 1507 1509 1511 1512 1514 1515 1517 1518 1519 1520 1521 1521 1521 1522 1522 1522 1522 1522 1522 1522 1522 1522 1521 1521 1520 1519 1519 1518 1516 1515 1514 1512 1510 1508 1506 1504
1494 1496 1497 1499 1501 1503 1506 1509 1511 1513 1514 1516 1516 1518 1519 1519 1521 1522 1521 1522 1522 1522 1523 1523 1523 1523 1522 1522 1522 1521 1520 1519 1518 1517 1516 1514 1513 1511 1509 1507 1505 1503 1501
1496 1498 1500 1501 1503 1505 1508 1510 1513 1514 1516 1517 1519 1520 1520 1522 1522 1523 1523 1523 1523 1524 1523 1523 1523 1523 1522 1522 1522 1521 1520 1519 1517 1516 1514 1512 1510 1508 1506 1504 1502 1500 1498
1499 1501 1503 1505 1507 1509 1510 1512 1514 1517 1518 1520 1521 1522 1523 1524 1524 1524 1524 1525 1525 1525 1524 1524 1523 1523 1523 1522 1522 1520 1519 1517 1516 1514 1512 1510 1508 1506 1504 1502 1500 1498 1496
1502 1504 1506 1508 1510 1512 1514 1515 1517 1518 1520 1522 1524 1525 1525 1526 1526 1526 1526 1526 1526 1525 1525 1525 1524 1524 1523 1522 1521 1519 1518 1516 1514 1512 1510 1508 1506 1504 1502 1500 1498 1495 1493
1506 1508 1510 1512 1514 1516 1518 1519 1520 1522 1523 1525 1526 1527 1528 1528 1528 1528 1528 1527 1527 1526 1526 1525 1525 1524 1523 1522 1520 1519 1517 1515 1513 1511 1509 1506 1504 1502 1500 1498 1495 1493 1490
1511 1513 1515 1516 1518 1520 1521 1523 1524 1525 1526 1528 1529 1529 1530 1530 1530 1530 1529 1528 1528 1527 1527 1526 1525 1524 1523 1521 1520 1518 1516 1514 1512 1509 1507 1505 1502 1500 1498 1495 1493 1490 1488
1516 1518 1519 1521 1522 1524 1525 1526 1527 1528 1529 1530 1531 1532 1532 1532 1531 1531 1530 1530 1529 1529 1528 1527 1526 1524 1523 1521 1519 1517 1515 1513 1510 1507 1505 1503 1500 1498 1496 1493 1491 1488 1485
1520 1522 1523 1524 1525 1527 1528 1529 1530 1531 1532 1532 1533 1534 1534 1534 1533 1533 1532 1531 1531 1530 1529 1528 1526 1524 1523 1521 1519 1516 1514 1511 1508 1506 1503 1501 1499 1496 1494 1491 1489 1486 1484
1524 1525 1526 1527 1528 1530 1531 1532 1533 1533 1534 1535 1535 1536 1536 1535 1535 1534 1533 1533 1532 1531 1529 1528 1526 1524 1522 1520 1518 1515 1513 1510 1507 1504 1501 1499 1497 1494 1492 1490 1487 1485 1482
1528 1528 1529 1530 1531 1532 1533 1534 1535 1535 1536 1537 1537 1537 1537 1536 1536 1535 1534 1533 1532 1531 1529 1528 1526 1524 1522 1520 1517 1515 1512 1509 1506 1503 1500 1498 1495 1493 1491 1488 1486 1484 1481
1530 1531 1531 1532 1533 1534 1535 1536 1536 1537 1538 1538 1538 1538 1538 1537 1536 1536 1535 1534 1532 1531 1529 1527 1526 1524 1521 1519 1516 1514 1511 1508 1505 1502 1499 1497 1494 1492 1490 1488 1485 1483 1480
1533 1533 1534 1535 1536 1536 1537 1538 1538 1539 1539 1539 1539 1538 1538 1537 1537 1536 1535 1534 1532 1530 1529 1527 1525 1523 1521 1518 1516 1513 1510 1507 1504 1501 1498 1496 1494 1491 1489 1487 1485 1482 1480